N6OIM Weather Reports


Display with metric or nautical units.
time (UTC)temp
F
wind
direction
speed
MPH
gust
MPH
rain 1hr
in
rain 24hr
in
rain mn
in
humidity
%
barometer
mb
20180623210838 96 337 2.0 12.0 0.00 0.00 0.00 23 1005.6
20180623210431 96 283 2.0 12.0 0.00 0.00 0.00 23 1005.8
20180623205852 96 332 4.0 6.0 0.00 0.00 0.00 23 1005.8
20180623205346 96 349 3.0 6.0 0.00 0.00 0.00 23 1005.9
20180623204838 96 323 5.0 10.0 0.00 0.00 0.00 23 1005.9
20180623204428 96 328 3.0 10.0 0.00 0.00 0.00 24 1005.9
20180623203837 96 340 5.0 7.0 0.00 0.00 0.00 23 1005.9
20180623203415 96 342 3.0 4.0 0.00 0.00 0.00 24 1005.9
20180623202913 96 302 3.0 4.0 0.00 0.00 0.00 24 1006.0
20180623202335 96 337 2.0 4.0 0.00 0.00 0.00 26 1006.0
20180623201842 95 268 3.0 5.0 0.00 0.00 0.00 25 1006.0
20180623201345 95 355 3.0 10.0 0.00 0.00 0.00 24 1006.0
20180623200926 95 291 2.0 10.0 0.00 0.00 0.00 25 1006.1
20180623200405 95 285 1.0 6.0 0.00 0.00 0.00 25 1006.1
20180623195857 94 314 2.0 6.0 0.00 0.00 0.00 25 1006.1
20180623195346 94 277 3.0 7.0 0.00 0.00 0.00 26 1006.2
20180623194923 94 337 3.0 7.0 0.00 0.00 0.00 25 1006.2
20180623194400 94 360 5.0 6.0 0.00 0.00 0.00 25 1006.5
20180623193909 94 339 3.0 6.0 0.00 0.00 0.00 25 1006.4
20180623193404 94 280 4.0 6.0 0.00 0.00 0.00 24 1006.5
20180623192910 93 273 2.0 4.0 0.00 0.00 0.00 26 1006.6
20180623192401 93 338 2.0 6.0 0.00 0.00 0.00 25 1006.6
20180623191839 92 286 2.0 6.0 0.00 0.00 0.00 26 1006.5
20180623191426 92 347 3.0 5.0 0.00 0.00 0.00 25 1006.5
20180623190906 92 297 3.0 7.0 0.00 0.00 0.00 25 1006.6
20180623190344 92 284 2.0 7.0 0.00 0.00 0.00 25 1006.7
20180623185945 92 291 3.0 5.0 0.00 0.00 0.00 26 1006.7
20180623184907 91 273 2.0 5.0 0.00 0.00 0.00 26 1006.7
20180623184342 91 315 3.0 5.0 0.00 0.00 0.00 27 1006.7
20180623183918 91 360 3.0 7.0 0.00 0.00 0.00 28 1006.7
20180623182914 89 327 3.0 8.0 0.00 0.00 0.00 28 1006.8
20180623182348 89 309 1.0 7.0 0.00 0.00 0.00 29 1006.9
20180623181926 88 319 6.0 7.0 0.00 0.00 0.00 29 1006.9
20180623181339 88 5 4.0 7.0 0.00 0.00 0.00 29 1007.0
20180623180910 88 318 4.0 7.0 0.00 0.00 0.00 30 1006.9
20180623175911 87 298 4.0 10.0 0.00 0.00 0.00 30 1007.0
20180623175443 87 5 3.0 10.0 0.00 0.00 0.00 30 1007.0
20180623174912 87 345 5.0 6.0 0.00 0.00 0.00 32 1007.0
20180623174355 86 296 3.0 7.0 0.00 0.00 0.00 33 1007.0
20180623173927 86 338 6.0 7.0 0.00 0.00 0.00 32 1007.1
20180623173411 86 253 4.0 9.0 0.00 0.00 0.00 32 1007.1
20180623172910 85 295 5.0 9.0 0.00 0.00 0.00 33 1007.3
20180623172344 85 311 3.0 4.0 0.00 0.00 0.00 33 1007.2
20180623171933 85 355 3.0 6.0 0.00 0.00 0.00 33 1007.2
20180623171415 84 296 4.0 6.0 0.00 0.00 0.00 34 1007.2
20180623170847 84 298 4.0 5.0 0.00 0.00 0.00 34 1007.1
20180623170347 84 355 2.0 6.0 0.00 0.00 0.00 34 1007.1
20180623165933 84 360 2.0 6.0 0.00 0.00 0.00 35 1007.2
20180623165431 84 323 3.0 6.0 0.00 0.00 0.00 36 1007.3
20180623164917 83 225 3.0 6.0 0.00 0.00 0.00 36 1007.3
20180623163920 82 308 2.0 4.0 0.00 0.00 0.00 38 1007.4
20180623163402 82 314 3.0 4.0 0.00 0.00 0.00 39 1007.4
20180623162838 82 306 1.0 5.0 0.00 0.00 0.00 40 1007.4
20180623162439 81 334 2.0 5.0 0.00 0.00 0.00 39 1007.4
20180623160912 80 340 3.0 6.0 0.00 0.00 0.00 42 1007.4
20180623160353 80 329 3.0 5.0 0.00 0.00 0.00 42 1007.4
20180623155920 79 316 2.0 5.0 0.00 0.00 0.00 43 1007.3
20180623155431 79 326 2.0 7.0 0.00 0.00 0.00 43 1007.3
20180623154901 79 11 5.0 7.0 0.00 0.00 0.00 43 1007.4
20180623154353 79 326 3.0 5.0 0.00 0.00 0.00 44 1007.4
20180623153838 78 355 4.0 5.0 0.00 0.00 0.00 47 1007.4
20180623153428 78 331 1.0 3.0 0.00 0.00 0.00 49 1007.4
20180623152923 78 310 2.0 3.0 0.00 0.00 0.00 50 1007.4
20180623152359 77 280 2.0 4.0 0.00 0.00 0.00 52 1007.4
20180623151838 77 281 2.0 4.0 0.00 0.00 0.00 54 1007.4
20180623151424 76 330 1.0 4.0 0.00 0.00 0.00 55 1007.4
20180623145922 75 325 2.0 3.0 0.00 0.00 0.00 58 1007.4
20180623145410 74 338 2.0 4.0 0.00 0.00 0.00 59 1007.4
20180623144851 73 315 2.0 3.0 0.00 0.00 0.00 60 1007.3
20180623144338 72 326 0.0 3.0 0.00 0.00 0.00 61 1007.3
20180623143919 71 324 1.0 2.0 0.00 0.00 0.00 62 1007.3
20180623143411 70 286 0.0 0.0 0.00 0.00 0.00 65 1007.3
20180623141414 67 285 0.0 0.0 0.00 0.00 0.00 71 1007.1
20180623140904 66 285 0.0 0.0 0.00 0.00 0.00 72 1007.2
20180623135928 66 285 0.0 0.0 0.00 0.00 0.00 73 1007.1
20180623135424 65 285 0.0 0.0 0.00 0.00 0.00 73 1007.1
20180623134922 65 285 0.0 0.0 0.00 0.00 0.00 73 1007.0
20180623134422 65 285 0.0 0.0 0.00 0.00 0.00 72 1006.9
20180623133916 65 284 0.0 0.0 0.00 0.00 0.00 72 1006.9
20180623133410 65 284 0.0 0.0 0.00 0.00 0.00 71 1006.9
20180623132833 65 285 0.0 0.0 0.00 0.00 0.00 71 1006.9
20180623132431 65 284 0.0 0.0 0.00 0.00 0.00 71 1006.9
20180623131911 65 285 0.0 0.0 0.00 0.00 0.00 71 1006.9
20180623131410 65 284 0.0 0.0 0.00 0.00 0.00 71 1006.9
20180623130910 65 285 0.0 0.0 0.00 0.00 0.00 71 1006.9
20180623130405 65 285 0.0 0.0 0.00 0.00 0.00 70 1006.9
20180623125846 65 285 0.0 0.0 0.00 0.00 0.00 69 1006.8
20180623125425 65 285 0.0 0.0 0.00 0.00 0.00 69 1006.8
20180623124913 65 285 0.0 0.0 0.00 0.00 0.00 69 1006.8
20180623124405 65 284 0.0 0.0 0.00 0.00 0.00 68 1006.9
20180623123840 65 284 0.0 0.0 0.00 0.00 0.00 68 1006.8
20180623123347 66 284 0.0 0.0 0.00 0.00 0.00 68 1006.7
20180623122934 66 284 0.0 0.0 0.00 0.00 0.00 68 1006.7
20180623122428 66 284 0.0 0.0 0.00 0.00 0.00 67 1006.7
20180623121855 66 284 0.0 0.0 0.00 0.00 0.00 67 1006.7
20180623121350 66 284 0.0 0.0 0.00 0.00 0.00 67 1006.7
20180623120853 66 284 0.0 0.0 0.00 0.00 0.00 67 1006.7
20180623120433 66 284 0.0 0.0 0.00 0.00 0.00 66 1006.7
20180623115420 67 284 0.0 0.0 0.00 0.00 0.00 67 1006.7
20180623114436 67 284 0.0 0.0 0.00 0.00 0.00 65 1006.6
20180623113909 67 284 0.0 0.0 0.00 0.00 0.00 65 1006.5
20180623113405 67 285 0.0 0.0 0.00 0.00 0.00 65 1006.4
20180623111438 67 284 0.0 0.0 0.00 0.00 0.00 63 1006.4
20180623110859 67 285 0.0 0.0 0.00 0.00 0.00 63 1006.3
20180623110351 67 285 0.0 0.0 0.00 0.00 0.00 62 1006.4
20180623105950 67 285 0.0 0.0 0.00 0.00 0.00 63 1006.3
20180623105353 67 284 0.0 0.0 0.00 0.00 0.00 62 1006.3
20180623104933 68 284 0.0 0.0 0.00 0.00 0.00 63 1006.3
20180623104425 68 285 0.0 0.0 0.00 0.00 0.00 63 1006.3
20180623103910 68 284 0.0 0.0 0.00 0.00 0.00 62 1006.2
20180623103342 68 284 0.0 0.0 0.00 0.00 0.00 63 1006.3
20180623102931 68 284 0.0 0.0 0.00 0.00 0.00 64 1006.2
20180623102339 68 285 0.0 0.0 0.00 0.00 0.00 64 1006.3
20180623101928 68 285 0.0 0.0 0.00 0.00 0.00 64 1006.3
20180623101414 68 285 0.0 0.0 0.00 0.00 0.00 64 1006.3
20180623100910 68 284 0.0 0.0 0.00 0.00 0.00 63 1006.2
20180623100333 68 285 0.0 0.0 0.00 0.00 0.00 62 1006.1
20180623095925 68 284 0.0 0.0 0.00 0.00 0.00 62 1006.1
20180623095403 69 284 0.0 0.0 0.00 0.00 0.00 63 1006.1
20180623094838 69 284 0.0 0.0 0.00 0.00 0.00 62 1006.2
20180623094334 69 285 0.0 0.0 0.00 0.00 0.00 62 1006.1
20180623093921 69 284 0.0 0.0 0.00 0.00 0.00 61 1006.1
20180623093417 69 284 0.0 0.0 0.00 0.00 0.00 60 1006.1
20180623092358 70 284 0.0 0.0 0.00 0.00 0.00 59 1006.2
20180623091839 70 284 0.0 0.0 0.00 0.00 0.00 60 1006.2
20180623091437 70 284 0.0 0.0 0.00 0.00 0.00 59 1006.3
20180623090407 70 284 0.0 0.0 0.00 0.00 0.00 58 1006.3
20180623085851 70 285 0.0 0.0 0.00 0.00 0.00 58 1006.3
20180623085403 71 285 0.0 0.0 0.00 0.00 0.00 57 1006.3
20180623084841 71 285 0.0 0.0 0.00 0.00 0.00 56 1006.3
20180623084341 71 284 0.0 0.0 0.00 0.00 0.00 56 1006.4
20180623083840 71 284 0.0 0.0 0.00 0.00 0.00 56 1006.4
20180623083335 71 284 0.0 0.0 0.00 0.00 0.00 55 1006.3
20180623082834 71 284 0.0 0.0 0.00 0.00 0.00 54 1006.4
20180623082351 72 284 0.0 0.0 0.00 0.00 0.00 54 1006.4
20180623081849 72 284 0.0 0.0 0.00 0.00 0.00 53 1006.5
20180623081345 72 285 0.0 0.0 0.00 0.00 0.00 52 1006.6
20180623080844 72 284 0.0 0.0 0.00 0.00 0.00 52 1006.5
20180623080340 73 284 0.0 0.0 0.00 0.00 0.00 51 1006.5
20180623075839 73 284 0.0 0.0 0.00 0.00 0.00 51 1006.5
20180623075334 73 285 0.0 0.0 0.00 0.00 0.00 49 1006.4
20180623074853 73 284 0.0 0.0 0.00 0.00 0.00 49 1006.6
20180623074350 73 284 0.0 0.0 0.00 0.00 0.00 49 1006.5
20180623073847 74 284 0.0 0.0 0.00 0.00 0.00 49 1006.6
20180623073343 74 284 0.0 0.0 0.00 0.00 0.00 48 1006.6
20180623072847 74 284 0.0 0.0 0.00 0.00 0.00 48 1006.6
20180623072343 74 285 0.0 0.0 0.00 0.00 0.00 47 1006.5
20180623071838 75 284 0.0 0.0 0.00 0.00 0.00 46 1006.6
20180623071335 75 284 0.0 0.0 0.00 0.00 0.00 46 1006.6
20180623070834 75 284 0.0 0.0 0.00 0.00 0.00 46 1006.6
20180623070350 76 284 0.0 0.0 0.00 0.00 0.00 46 1006.6
20180623065916 76 284 0.0 0.0 0.00 0.00 0.00 46 1006.6
20180623064422 77 284 0.0 0.0 0.00 0.00 0.00 45 1006.6
20180623063901 77 285 0.0 0.0 0.00 0.00 0.00 44 1006.7
20180623063425 77 284 0.0 0.0 0.00 0.00 0.00 44 1006.6
20180623062839 77 284 0.0 0.0 0.00 0.00 0.00 44 1006.7
20180623062338 78 284 0.0 0.0 0.00 0.00 0.00 44 1006.8
20180623061936 78 284 0.0 0.0 0.00 0.00 0.00 44 1006.7
20180623061345 78 284 0.0 0.0 0.00 0.00 0.00 43 1006.7
20180623060843 79 284 0.0 0.0 0.00 0.00 0.00 44 1006.6
20180623060433 79 284 0.0 0.0 0.00 0.00 0.00 44 1006.7
20180623055426 80 284 0.0 0.0 0.00 0.00 0.00 43 1006.8
20180623054845 80 284 0.0 0.0 0.00 0.00 0.00 43 1006.8
20180623054357 80 284 0.0 0.0 0.00 0.00 0.00 43 1006.9
20180623053407 81 284 0.0 0.0 0.00 0.00 0.00 42 1006.9
20180623052850 81 284 0.0 0.0 0.00 0.00 0.00 42 1006.9
20180623052432 82 284 0.0 0.0 0.00 0.00 0.00 41 1006.9
20180623051908 82 284 0.0 0.0 0.00 0.00 0.00 41 1006.9
20180623051403 82 284 0.0 0.0 0.00 0.00 0.00 40 1006.9
20180623050914 83 285 0.0 0.0 0.00 0.00 0.00 39 1006.8
20180623050346 83 284 0.0 0.0 0.00 0.00 0.00 39 1006.8
20180623045834 83 284 0.0 0.0 0.00 0.00 0.00 39 1006.9
20180623045428 84 284 0.0 0.0 0.00 0.00 0.00 38 1006.9
20180623044912 84 284 0.0 0.0 0.00 0.00 0.00 37 1006.7
20180623044358 85 284 0.0 0.0 0.00 0.00 0.00 36 1006.8
20180623043900 85 284 0.0 0.0 0.00 0.00 0.00 36 1006.7
20180623042933 86 284 0.0 0.0 0.00 0.00 0.00 36 1006.7
20180623042405 86 284 0.0 0.0 0.00 0.00 0.00 34 1006.6
20180623041416 87 284 0.0 0.0 0.00 0.00 0.00 32 1006.6
20180623040857 88 284 0.0 0.0 0.00 0.00 0.00 31 1006.6
20180623040349 89 284 0.0 0.0 0.00 0.00 0.00 31 1006.5
20180623035919 89 284 0.0 0.0 0.00 0.00 0.00 31 1006.6
20180623035339 90 284 0.0 0.0 0.00 0.00 0.00 28 1006.6
20180623034933 91 284 0.0 0.0 0.00 0.00 0.00 27 1006.5
20180623034406 92 284 0.0 0.0 0.00 0.00 0.00 27 1006.5
20180623033841 93 284 0.0 0.0 0.00 0.00 0.00 27 1006.5
20180623033448 93 284 0.0 0.0 0.00 0.00 0.00 27 1006.6
20180623032924 94 284 0.0 0.0 0.00 0.00 0.00 26 1006.6
20180623031414 97 284 0.0 0.0 0.00 0.00 0.00 24 1006.5
20180623030905 98 284 0.0 0.0 0.00 0.00 0.00 23 1006.5
20180623025925 99 284 0.0 0.0 0.00 0.00 0.00 23 1006.5
20180623024902 99 284 0.0 0.0 0.00 0.00 0.00 22 1006.5
20180623024349 100 284 0.0 0.0 0.00 0.00 0.00 21 1006.5
20180623023835 100 288 0.0 0.0 0.00 0.00 0.00 22 1006.5
20180623023440 100 288 0.0 2.0 0.00 0.00 0.00 21 1006.5
20180623022915 100 287 1.0 2.0 0.00 0.00 0.00 20 1006.5
20180623021928 101 308 2.0 3.0 0.00 0.00 0.00 20 1006.6
20180623021420 101 321 0.0 2.0 0.00 0.00 0.00 19 1006.5
20180623020921 101 321 1.0 3.0 0.00 0.00 0.00 19 1006.6
20180623015859 101 274 1.0 4.0 0.00 0.00 0.00 18 1006.6
20180623015415 101 302 1.0 3.0 0.00 0.00 0.00 18 1006.6
20180623014905 101 280 1.0 5.0 0.00 0.00 0.00 18 1006.6
20180623014447 102 227 4.0 5.0 0.00 0.00 0.00 17 1006.6
20180623013926 102 350 0.0 2.0 0.00 0.00 0.00 17 1006.6
20180623013410 102 337 1.0 3.0 0.00 0.00 0.00 17 1006.6
20180623012903 102 330 2.0 3.0 0.00 0.00 0.00 16 1006.7
20180623012349 102 317 1.0 3.0 0.00 0.00 0.00 15 1006.7
20180623011833 102 344 1.0 4.0 0.00 0.00 0.00 16 1006.7
20180623011420 102 312 2.0 4.0 0.00 0.00 0.00 16 1006.7
20180623010355 102 16 3.0 4.0 0.00 0.00 0.00 17 1006.9
20180623005855 102 333 2.0 3.0 0.00 0.00 0.00 17 1007.0
20180623005443 102 286 3.0 4.0 0.00 0.00 0.00 16 1007.0
20180623004333 102 5 2.0 6.0 0.00 0.00 0.00 17 1007.1
20180623003835 102 322 2.0 6.0 0.00 0.00 0.00 16 1007.2
20180623003426 102 311 3.0 8.0 0.00 0.00 0.00 15 1007.2
20180623001923 101 326 2.0 5.0 0.00 0.00 0.00 15 1007.4
20180623001408 101 17 2.0 8.0 0.00 0.00 0.00 16 1007.5
20180623000906 102 360 4.0 8.0 0.00 0.00 0.00 17 1007.6
20180623000353 102 13 3.0 4.0 0.00 0.00 0.00 17 1007.6
20180622235842 102 264 3.0 6.0 0.00 0.00 0.00 17 1007.8
20180622235340 102 355 5.0 6.0 0.00 0.00 0.00 16 1007.8
20180622234925 102 291 3.0 4.0 0.00 0.00 0.00 18 1007.8
20180622234346 101 311 3.0 5.0 0.00 0.00 0.00 17 1007.8
20180622233930 101 318 4.0 5.0 0.00 0.00 0.00 18 1007.8
20180622232419 101 288 3.0 5.0 0.00 0.00 0.00 16 1008.1
20180622231908 101 334 3.0 9.0 0.00 0.00 0.00 17 1008.1
20180622231403 102 292 3.0 11.0 0.00 0.00 0.00 16 1008.1
20180622230843 102 329 1.0 11.0 0.00 0.00 0.00 17 1008.3
20180622230337 102 269 2.0 6.0 0.00 0.00 0.00 17 1008.3
20180622225929 102 302 6.0 6.0 0.00 0.00 0.00 18 1008.3
20180622225414 101 267 5.0 6.0 0.00 0.00 0.00 18 1008.3
20180622224408 101 248 3.0 5.0 0.00 0.00 0.00 17 1008.3
20180622223840 101 348 4.0 5.0 0.00 0.00 0.00 17 1008.6
20180622223430 101 343 4.0 5.0 0.00 0.00 0.00 17 1008.6
20180622222920 101 279 1.0 5.0 0.00 0.00 0.00 17 1008.6
20180622222421 101 346 4.0 5.0 0.00 0.00 0.00 17 1008.7
20180622221913 101 303 3.0 5.0 0.00 0.00 0.00 18 1008.7
20180622220920 100 277 3.0 4.0 0.00 0.00 0.00 18 1008.9
20180622220345 100 341 3.0 6.0 0.00 0.00 0.00 18 1009.0
20180622215842 100 292 4.0 6.0 0.00 0.00 0.00 19 1009.1
20180622215416 100 41 2.0 6.0 0.00 0.00 0.00 19 1009.1
20180622214917 100 340 3.0 4.0 0.00 0.00 0.00 20 1009.2
20180622214350 100 331 4.0 4.0 0.00 0.00 0.00 20 1009.3
20180622213856 100 292 2.0 5.0 0.00 0.00 0.00 21 1009.3
20180622213346 99 282 4.0 5.0 0.00 0.00 0.00 20 1009.4
20180622212948 99 281 2.0 4.0 0.00 0.00 0.00 21 1009.5
20180622212351 98 314 3.0 4.0 0.00 0.00 0.00 20 1009.4
20180622211855 98 355 2.0 5.0 0.00 0.00 0.00 21 1009.5
20180622211341 98 310 3.0 5.0 0.00 0.00 0.00 20 1009.6